TimeEDT,TemperatureF,Dew PointF,Humidity,Sea Level PressureIn,VisibilityMPH,Wind Direction,Wind SpeedMPH,Gust SpeedMPH,PrecipitationIn,Events,Conditions,WindDirDegrees,DateUTC
1:28 AM,35.6,33.8,93,30.28,4.0,Calm,Calm,-,N/A,,Mostly Cloudy,0,2013-03-11 05:28:00
1:42 AM,32.0,30.2,93,30.29,3.0,Calm,Calm,-,N/A,,Mostly Cloudy,0,2013-03-11 05:42:00
1:54 AM,33.1,30.9,92,30.29,3.0,Calm,Calm,-,N/A,,Overcast,0,2013-03-11 05:54:00
2:32 AM,32.0,30.2,93,30.27,0.2,Calm,Calm,-,N/A,Fog,Fog,0,2013-03-11 06:32:00
2:54 AM,32.0,30.9,96,30.27,0.2,Calm,Calm,-,N/A,Fog,Fog,0,2013-03-11 06:54:00
3:33 AM,33.8,33.8,100,30.26,0.5,Calm,Calm,-,N/A,Fog,Fog,0,2013-03-11 07:33:00
3:54 AM,34.0,32.0,92,30.25,0.5,Calm,Calm,-,N/A,Fog,Fog,0,2013-03-11 07:54:00
4:02 AM,33.8,33.8,100,30.25,0.2,Calm,Calm,-,N/A,Fog,Fog,0,2013-03-11 08:02:00
4:54 AM,34.0,34.0,100,30.25,0.2,Calm,Calm,-,N/A,Fog,Fog,0,2013-03-11 08:54:00
5:54 AM,35.1,34.0,96,30.23,0.2,Calm,Calm,-,N/A,Fog,Fog,0,2013-03-11 09:54:00
6:54 AM,35.1,35.1,100,30.23,0.2,Calm,Calm,-,N/A,Fog,Fog,0,2013-03-11 10:54:00
7:05 AM,35.6,35.6,100,30.23,0.2,Calm,Calm,-,N/A,Fog,Fog,0,2013-03-11 11:05:00
7:54 AM,36.0,36.0,100,30.24,0.2,Calm,Calm,-,N/A,Fog,Fog,0,2013-03-11 11:54:00
8:54 AM,39.0,37.9,96,30.25,0.2,Calm,Calm,-,N/A,Fog,Fog,0,2013-03-11 12:54:00
9:54 AM,42.1,42.1,100,30.22,0.2,ESE,4.6,-,N/A,Fog,Fog,120,2013-03-11 13:54:00
10:18 AM,44.6,44.6,100,30.23,1.0,SSE,4.6,-,N/A,,Mist,150,2013-03-11 14:18:00
10:22 AM,44.6,44.6,100,30.23,4.0,Calm,Calm,-,N/A,,Overcast,0,2013-03-11 14:22:00
10:39 AM,48.2,44.6,87,30.23,10.0,Variable,5.8,-,N/A,,Mostly Cloudy,0,2013-03-11 14:39:00
10:49 AM,48.2,44.6,87,30.23,10.0,South,5.8,-,N/A,,Scattered Clouds,170,2013-03-11 14:49:00
10:54 AM,48.9,45.0,86,30.23,10.0,South,4.6,-,N/A,,Scattered Clouds,170,2013-03-11 14:54:00
11:07 AM,51.8,44.6,76,30.22,10.0,South,8.1,-,N/A,,Mostly Cloudy,170,2013-03-11 15:07:00
11:43 AM,53.6,44.6,72,30.21,10.0,South,8.1,-,N/A,,Scattered Clouds,170,2013-03-11 15:43:00
11:54 AM,54.0,45.0,72,30.21,10.0,South,6.9,18.4,N/A,,Partly Cloudy,170,2013-03-11 15:54:00
12:54 PM,55.0,43.0,64,30.19,10.0,SSE,9.2,16.1,N/A,,Clear,150,2013-03-11 16:54:00
1:54 PM,55.9,44.1,64,30.17,10.0,SSE,9.2,-,N/A,,Clear,160,2013-03-11 17:54:00
2:54 PM,55.9,45.0,67,30.14,10.0,SSE,8.1,-,N/A,,Clear,160,2013-03-11 18:54:00
3:54 PM,57.0,46.0,67,30.12,10.0,SSE,11.5,18.4,N/A,,Clear,150,2013-03-11 19:54:00
4:54 PM,55.9,46.9,72,30.11,10.0,SSE,11.5,18.4,N/A,,Clear,160,2013-03-11 20:54:00
5:54 PM,54.0,48.0,80,30.09,10.0,SSE,9.2,18.4,N/A,,Clear,160,2013-03-11 21:54:00
6:52 PM,51.8,48.2,88,30.09,9.0,SSE,9.2,19.6,N/A,,Mostly Cloudy,150,2013-03-11 22:52:00
7:03 PM,51.8,48.2,88,30.10,8.0,SSE,10.4,16.1,N/A,,Overcast,160,2013-03-11 23:03:00
7:54 PM,50.0,46.9,89,30.11,9.0,Variable,3.5,-,N/A,,Overcast,0,2013-03-11 23:54:00
8:54 PM,50.0,48.0,93,30.08,8.0,SSE,9.2,16.1,N/A,,Overcast,150,2013-03-12 00:54:00
9:24 PM,50.0,46.4,87,30.08,9.0,Variable,6.9,-,N/A,,Scattered Clouds,0,2013-03-12 01:24:00
9:54 PM,52.0,48.0,86,30.07,10.0,SSE,9.2,-,N/A,,Clear,160,2013-03-12 01:54:00
10:54 PM,53.1,46.9,80,30.08,10.0,SSE,8.1,-,N/A,,Clear,150,2013-03-12 02:54:00
11:54 PM,52.0,46.9,83,30.07,10.0,SSE,6.9,-,N/A,,Clear,160,2013-03-12 03:54:00